Regional Weather Roundup
Issued by NWS Jackson, KY

Home | Current Version | Previous Version | Text Only | Print | Product List | Glossary Off
Versions: 1 2 3 4 5 6 7 8 9 10 11 12 13 14 15 16 17 18 19 20 21 22 23 24 25 26 27 28

000
ASUS43 KJKL 170610
RWRJKL

EAST KENTUCKY HOURLY WEATHER ROUNDUP
NATIONAL WEATHER SERVICE JACKSON KY
100 AM EST SUN DEC 17 2017

NOTE: "FAIR" INDICATES FEW OR NO CLOUDS BELOW 12,000 FEET WITH
NO SIGNIFICANT WEATHER AND/OR OBSTRUCTIONS TO VISIBILITY.

* THESE REPORTS ARE NOT UNDER NWS QUALITY CONTROL AND MAY NOT
  REPORT WEATHER SUCH AS PRECIPITATION AND FOG.

KYZ079-080-083-085-087-088-110-112-115-119-120-170700
...EASTERN KENTUCKY...

CITY           SKY/WX    TMP DP  RH WIND       PRES   REMARKS
JACKSON        CLOUDY    39  26  59 SW3       30.22F
6HR MIN TEMP:  38; 6HR MAX TEMP:  43;

LONDON         CLOUDY    31  26  82 CALM      30.24R
6HR MIN TEMP:  31; 6HR MAX TEMP:  40;

SOMERSET*      CLOUDY    37  28  70 S5        30.25F WCI  34
MONTICELLO*    MOCLDY    30  27  88 W9        30.26S WCI  22
6HR MIN TEMP:  26; 6HR MAX TEMP:  32;

WILLIAMSBURG*  CLOUDY    32  28  86 CALM      30.23F
MIDDLESBORO*   CLOUDY    30  27  89 CALM      30.26F
6HR MIN TEMP:  27; 6HR MAX TEMP:  35;

HARLAN APT*    PTCLDY    32  27  80 CALM      30.24F
PIKE CO APT*     N/A     38  25  58 CALM      30.23S
BIG SANDY APT* CLOUDY    39  27  61 CALM      30.22F
6HR MIN TEMP:  39; 6HR MAX TEMP:  46;

MOREHEAD APT*  PTCLDY    41  27  56 SW7       30.23S
$$

KYZ035-036-041-042-044-050-067-078-099-170700
...CENTRAL KENTUCKY...

CITY           SKY/WX    TMP DP  RH WIND       PRES   REMARKS
MT STERLING*   CLOUDY    36  28  75 SW7       30.23S WCI  30
FLEMING/MASON* PTCLDY    35  28  75 SW7       30.22S WCI  29
DANVILLE*      MOCLDY    37  30  75 S5        30.23S WCI  34
LEXINGTON      CLOUDY    37  28  70 S7        30.21S WCI  32
6HR MIN TEMP:  36; 6HR MAX TEMP:  42;

FRANKFORT      PTCLDY    38  27  64 S7        30.19F WCI  33
6HR MIN TEMP:  38; 6HR MAX TEMP:  44;

LOUISVILLE     MOCLDY    43  29  57 S8        30.19F
6HR MIN TEMP:  40; 6HR MAX TEMP:  48;

LEBANON*         N/A     39  28  65 S9        30.22R WCI  33
GLASGOW*       CLOUDY    41  30  65 S3        30.21F
BOWLING GREEN  PTCLDY    41  31  67 S3        30.22F
6HR MIN TEMP:  41; 6HR MAX TEMP:  45;

$$

KYZ091>093-OHZ055-061-077-WVZ005-015-034-035-042-170700
...SOUTHERN OHIO/WEST VIRGINIA...

CITY           SKY/WX    TMP DP  RH WIND       PRES   REMARKS
COVINGTON      PTCLDY    38  30  73 S7        30.17S WCI  33
COLUMBUS       PTCLDY    36  27  69 CALM      30.17S
DAYTON         CLOUDY    37  28  70 S10       30.15F WCI  30
WILMINGTON     CLEAR     35  29  78 SW9       30.17S WCI  28
HUNTINGTON     CLOUDY    39  25  57 S7        30.23R WCI  34
CHARLESTON     CLOUDY    33  25  72 CALM      30.22S
PINEVILLE*       N/A     26  24  93 MISG      30.30S
BECKLEY        CLOUDY    33  23  66 SW7       30.21S WCI  27
BLUEFIELD      CLOUDY    33  21  61 W9        30.22S WCI  25
LOGAN CO APT*    N/A     37  25  60 CALM      30.23S
$$

VAZ002-007-008-TNZ017-027-036-066-071-170700
...SOUTHWEST VIRGINIA/EAST TENNESSEE...

CITY           SKY/WX    TMP DP  RH WIND       PRES   REMARKS
WISE*          PTCLDY    34  28  80 SE5       30.23S WCI  30
JONESVILLE*      N/A     27  27 100 CALM      30.29S
ABINGDON*      CLOUDY    31  26  83 CALM      30.26S
BRISTOL        PTCLDY    26  25  96 CALM      30.27F
MORRISTOWN*    CLEAR     32  27  80 CALM      30.25F
SEVIERVILLE*   CLEAR     28  27  93 CALM      30.27F
KNOXVILLE      MOCLDY    31  29  92 CALM      30.26F
LAFOLLETTE*    CLEAR     28  27  93 CALM      30.29S
OAK RIDGE      MOCLDY    32  29  88 CALM      30.28S
CROSSVILLE     CLOUDY    35  26  69 CALM      30.23F
NASHVILLE      CLOUDY    41  30  65 SE3       30.22F
$$

...KEY TO REMARKS...
VSB - VISIBILITY IN MILES
WCI - WIND CHILL INDEX
HX  - HEAT INDEX

$$




USA.gov is the U.S. government's official web portal to all federal, state and local government web resources and services.